Weather History for Lincoln, NE

Change the Weather History Date:

Sunday, June 9, 2013

  Actual Average Record
Temperature  
Mean Temperature 65 °F 71 °F  
Max Temperature 76 °F 82 °F 101 °F (1933)
Min Temperature 54 °F 59 °F 44 °F (1915)
Degree Days  
Heating Degree Days 0 1  
Month to date heating degree days 20 10  
Since 1 June heating degree days 20 10  
Since 1 July heating degree days 6326 6050  
Cooling Degree Days 0 6  
Month to date cooling degree days 6 48  
Year to date cooling degree days 93 127  
Since 1 June cooling degree days 6 48  
Growing Degree Days 18 (Base 50)    
Moisture  
Dew Point 56 °F    
Average Humidity 69    
Maximum Humidity 87    
Minimum Humidity 50    
Precipitation  
Precipitation 0.00 in 0.14 in 1.90 in (1967)
Month to date precipitation 1.00 1.28  
Year to date precipitation 16.85 11.62  
Snow  
Snow 0.00 in 0.00 in - ()
Month to date snowfall 0.0 0.0  
Since 1 July snowfall 27.5 25.9  
Snow Depth 0.00 in    
Sea Level Pressure  
Sea Level Pressure 29.78 in    
Wind  
Wind Speed 13 mph (WNW)    
Max Wind Speed 26 mph    
Max Gust Speed 33 mph    
Visibility 10 miles    
Events      
T = Trace of Precipitation, MM = Missing Value Source: NWS Daily Summary

Daily Weather History Graph

Daily Weather History Graph

Search for Another Location

Airport:

Trip Planner

Search our weather history database for the weather conditions in past years. The results will help you decide how hot, cold, wet, or windy it might be!

Date:

Astronomy

Jun. 09, 2013 Rise Set
Actual Time 5:55 AM CDT 8:57 PM CDT
Civil Twilight 5:21 AM CDT 9:31 PM CDT
Nautical Twilight 4:39 AM CDT 10:13 PM CDT
Astronomical Twilight 3:49 AM CDT 11:03 PM CDT
Moon 6:53 AM CDT (6/9) 9:44 PM CDT (6/9)
Length of Visible Light 16h 09m
Length of Day
15h 02m
New Moon, 1% of the Moon is Illuminated
Jun 9
New Moon
Jun 16
First Quarter
Jun 23
Full
Jun 29
Last Quarter
Jul 8
New

Hourly Weather History & Observations

Time (CDT) Temp. Dew Point Humidity Pressure Visibility Wind Dir Wind Speed Gust Speed Precip Events Conditions
12:54 AM 64.0 °F 60.1 °F 87% 29.75 in 10.0 mi WSW 6.9 mph - N/A   Scattered Clouds
1:54 AM 62.1 °F 57.0 °F 84% 29.75 in 10.0 mi West 10.4 mph - N/A   Clear
2:54 AM 61.0 °F 55.9 °F 83% 29.74 in 10.0 mi WSW 9.2 mph - N/A   Clear
3:54 AM 60.1 °F 55.0 °F 83% 29.73 in 10.0 mi WSW 10.4 mph - N/A   Clear
4:54 AM 60.1 °F 55.0 °F 83% 29.74 in 10.0 mi West 9.2 mph - N/A   Clear
5:54 AM 61.0 °F 54.0 °F 78% 29.75 in 10.0 mi West 10.4 mph - N/A   Overcast
6:54 AM 62.1 °F 55.0 °F 78% 29.75 in 10.0 mi West 10.4 mph - N/A   Overcast
7:54 AM 62.1 °F 55.0 °F 78% 29.77 in 10.0 mi West 12.7 mph - N/A   Overcast
8:54 AM 63.0 °F 55.0 °F 75% 29.77 in 10.0 mi West 11.5 mph - N/A   Overcast
9:27 AM 62.6 °F 55.4 °F 77% 29.79 in 10.0 mi West 13.8 mph - N/A   Overcast
9:54 AM 64.9 °F 55.0 °F 70% 29.78 in 10.0 mi WNW 17.3 mph 25.3 mph N/A   Overcast
10:54 AM 64.9 °F 54.0 °F 68% 29.78 in 10.0 mi NW 17.3 mph 24.2 mph N/A   Overcast
11:54 AM 66.9 °F 55.0 °F 66% 29.79 in 10.0 mi NW 15.0 mph 28.8 mph N/A   Overcast
12:54 PM 68.0 °F 55.0 °F 63% 29.80 in 10.0 mi NW 18.4 mph 24.2 mph N/A   Overcast
1:54 PM 71.1 °F 55.9 °F 59% 29.80 in 10.0 mi NNW 18.4 mph 27.6 mph N/A   Overcast
2:54 PM 72.0 °F 55.9 °F 57% 29.79 in 10.0 mi NNW 18.4 mph - N/A   Overcast
3:54 PM 73.0 °F 55.9 °F 55% 29.79 in 10.0 mi NNW 21.9 mph 29.9 mph N/A   Mostly Cloudy
4:54 PM 75.0 °F 55.0 °F 50% 29.79 in 10.0 mi NW 19.6 mph - N/A   Mostly Cloudy
5:54 PM 75.0 °F 55.0 °F 50% 29.79 in 10.0 mi NNW 19.6 mph 25.3 mph N/A   Partly Cloudy
6:54 PM 73.0 °F 55.0 °F 53% 29.80 in 10.0 mi NNW 19.6 mph 25.3 mph N/A   Clear
7:54 PM 72.0 °F 55.9 °F 57% 29.81 in 10.0 mi NNW 15.0 mph - N/A   Clear
8:54 PM 69.1 °F 55.9 °F 63% 29.82 in 10.0 mi NNW 9.2 mph - N/A   Clear
9:54 PM 64.9 °F 55.9 °F 73% 29.84 in 10.0 mi NNW 5.8 mph - N/A   Clear
10:54 PM 64.0 °F 55.9 °F 75% 29.85 in 10.0 mi NNW 6.9 mph - N/A   Clear
11:54 PM 63.0 °F 55.0 °F 75% 29.86 in 10.0 mi NW 6.9 mph - N/A   Clear